Hourly Data Report for September 05, 2017

All times are specified in Local Standard Time (LST). Add 1 hour to adjust for Daylight Saving Time where and when it is observed.

KUGLUKTUK A
NUNAVUT

67°49'00.000" N
115°08'38.000" W
22.60 m
2300903
71938
YCO

Download Data

Hourly Data (September 2017)
Hourly Data Report for September 5, 2017
Temp Definition
°C
Dew Point Temp Definition
°C
Rel Hum Definition
%
Wind Dir Definition
10's deg

Wind Spd Definition
km/h
Visibility Definition
km
Stn Press Definition
kPa
Hmdx Definition


Wind Chill Definition


Weather Definition


TIME
00:00 Legend Double Dagger 7.9 5.1 83 14 14 24.1 101.45     LegendNANA
01:00 Legend Double Dagger 7.6 5.5 87 11 17 24.1 101.38     LegendNANA
02:00 Legend Double Dagger 7.9 5.5 85 11 16 24.1 101.33     Mostly Cloudy
03:00 Legend Double Dagger 7.5 5.7 88 9 14 24.1 101.33     LegendNANA
04:00 Legend Double Dagger 8.2 6.0 86 10 17 24.1 101.29     LegendNANA
05:00 Legend Double Dagger 7.7 6.4 92 9 21 24.1 101.21     Mostly Cloudy
06:00 Legend Double Dagger 7.5 6.4 93 10 18 24.1 101.21     LegendNANA
07:00 Legend Double Dagger 7.8 6.7 93 10 21 24.1 101.14     LegendNANA
08:00 Legend Double Dagger 8.1 6.9 92 10 20 24.1 101.09     Cloudy
09:00 Legend Double Dagger 8.8 7.4 91 10 16 24.1 101.06     Rain
10:00 Legend Double Dagger 9.8 7.9 88 10 14 24.1 101.03     LegendNANA
11:00 Legend Double Dagger 10.9 8.5 85 10 8 24.1 101.06     Cloudy
12:00 Legend Double Dagger 11.6 8.3 80 9 7 24.1 101.02     LegendNANA
13:00 Legend Double Dagger 12.6 8.9 78 3 7 24.1 101.01     LegendNANA
14:00 Legend Double Dagger 10.6 8.5 87 35 17 24.1 101.02     Mainly Clear
15:00 Legend Double Dagger 9.9 7.9 88 35 14 24.1 101.02     LegendNANA
16:00 Legend Double Dagger 10.0 8.1 88 1 10 24.1 101.01     LegendNANA
17:00 Legend Double Dagger 10.2 8.0 87 36 9 24.1 101.00     Mainly Clear
18:00 Legend Double Dagger 9.7 7.9 89 2 9 24.1 101.00     LegendNANA
19:00 Legend Double Dagger 8.4 7.4 93 35 7 19.3 101.03     LegendNANA
20:00 Legend Double Dagger 7.6 7.2 97 35 7 19.3 101.05     Mainly Clear
21:00 Legend Double Dagger 7.2 6.9 98 8 4 19.3 101.03     LegendNANA
22:00 Legend Double Dagger 5.9 5.9 100 36 2 19.3 101.04     LegendNANA
23:00 Legend Double Dagger 6.7 6.7 100 36 2 8.1 101.05     Fog

Notes on Data Quality.

Legend

  • E = Estimated
  • M = Missing
  • NA = Not Available
  • ‡ = Partner data that is not subject to review by the National Climate Archives
Date modified: